Time,TemperatureF,DewpointF,PressureIn,WindDirection,WindDirectionDegrees,WindSpeedMPH,WindSpeedGustMPH,Humidity,HourlyPrecipIn,Conditions,Clouds,dailyrainin,SolarRadiationWatts/m^2,SoftwareType,DateUTC
2013-04-01 00:04:00,60.5,51.4,29.96,NNW,348,0.0,0.0,72,0.00,CLR,,0.00,0.0,WeatherDisplay:10.37,2013-04-01 10:04:00,
2013-04-01 00:09:00,60.5,51.4,29.96,NNW,348,0.0,0.0,72,0.00,CLR,,0.00,0.0,WeatherDisplay:10.37,2013-04-01 10:09:00,
2013-04-01 00:14:00,60.5,51.4,29.95,NNW,348,2.0,2.0,72,0.00,CLR,,0.00,0.0,WeatherDisplay:10.37,2013-04-01 10:14:00,
2013-04-01 00:19:00,60.5,51.4,29.95,NNW,348,1.0,0.0,72,0.00,CLR,,0.00,0.0,WeatherDisplay:10.37,2013-04-01 10:19:00,
2013-04-01 00:24:00,60.5,51.4,29.95,NNW,348,2.3,2.3,72,0.00,CLR,,0.00,0.0,WeatherDisplay:10.37,2013-04-01 10:24:00,
2013-04-01 00:29:00,60.6,51.9,29.95,North,355,0.0,0.1,73,0.00,CLR,,0.00,0.0,WeatherDisplay:10.37,2013-04-01 10:29:00,
2013-04-01 00:34:00,60.5,51.8,29.95,NE,44,3.5,3.5,73,0.00,CLR,,0.00,0.0,WeatherDisplay:10.37,2013-04-01 10:34:00,
2013-04-01 00:39:00,60.6,51.9,29.95,North,355,3.5,3.5,73,0.00,CLR,,0.00,0.0,WeatherDisplay:10.37,2013-04-01 10:39:00,
2013-04-01 00:44:00,60.7,52.0,29.95,NNW,338,2.3,2.3,73,0.00,CLR,,0.00,0.0,WeatherDisplay:10.37,2013-04-01 10:44:00,
2013-04-01 00:49:00,60.8,52.1,29.95,NNW,338,3.5,3.5,73,0.00,CLR,,0.00,0.0,WeatherDisplay:10.37,2013-04-01 10:49:00,
2013-04-01 00:54:00,60.8,52.1,29.94,NNW,340,3.5,3.5,73,0.00,CLR,,0.00,0.0,WeatherDisplay:10.37,2013-04-01 10:54:00,
2013-04-01 00:59:00,60.8,52.5,29.94,North,349,1.1,1.1,74,0.00,CLR,,0.00,0.0,WeatherDisplay:10.37,2013-04-01 10:59:00,
2013-04-01 01:04:00,60.8,52.5,29.94,North,355,3.5,3.5,74,0.00,CLR,,0.00,0.0,WeatherDisplay:10.37,2013-04-01 11:04:00,
2013-04-01 01:09:00,60.8,52.5,29.94,NNW,336,3.5,3.5,74,0.00,CLR,,0.00,0.0,WeatherDisplay:10.37,2013-04-01 11:09:00,
2013-04-01 01:14:00,60.8,52.5,29.94,NNW,336,1.1,1.1,74,0.00,CLR,,0.00,0.0,WeatherDisplay:10.37,2013-04-01 11:14:00,
2013-04-01 01:19:00,60.8,52.5,29.94,NNW,338,3.5,3.5,74,0.00,CLR,,0.00,0.0,WeatherDisplay:10.37,2013-04-01 11:19:00,
2013-04-01 01:24:00,60.8,52.5,29.94,NNW,344,3.5,3.5,74,0.00,CLR,,0.00,0.0,WeatherDisplay:10.37,2013-04-01 11:24:00,
2013-04-01 01:29:00,60.9,52.2,29.94,NE,34,4.6,4.6,73,0.00,CLR,,0.00,0.0,WeatherDisplay:10.37,2013-04-01 11:29:00,
2013-04-01 01:34:00,61.1,52.4,29.94,West,277,1.1,1.1,73,0.00,CLR,,0.00,0.0,WeatherDisplay:10.37,2013-04-01 11:34:00,
2013-04-01 01:39:00,61.1,52.0,29.93,NNW,344,3.5,3.5,72,0.00,CLR,,0.00,0.0,WeatherDisplay:10.37,2013-04-01 11:39:00,
2013-04-01 01:44:00,61.1,52.0,29.94,NNW,333,6.9,6.9,72,0.00,CLR,,0.00,0.0,WeatherDisplay:10.37,2013-04-01 11:44:00,
2013-04-01 01:49:00,61.2,51.7,29.94,North,355,0.0,0.0,71,0.00,CLR,,0.00,0.0,WeatherDisplay:10.37,2013-04-01 11:49:00,
2013-04-01 01:54:00,61.4,51.9,29.93,NNW,333,2.3,2.3,71,0.00,CLR,,0.00,0.0,WeatherDisplay:10.37,2013-04-01 11:54:00,
2013-04-01 01:59:00,61.5,51.2,29.93,NNW,346,3.5,3.5,69,0.00,CLR,,0.00,0.0,WeatherDisplay:10.37,2013-04-01 11:59:00,
2013-04-01 02:04:00,61.6,51.3,29.93,WNW,303,0.0,0.0,69,0.00,CLR,,0.00,0.0,WeatherDisplay:10.37,2013-04-01 12:04:00,
2013-04-01 02:09:00,61.5,51.2,29.93,NW,322,1.1,1.1,69,0.00,CLR,,0.00,0.0,WeatherDisplay:10.37,2013-04-01 12:09:00,
2013-04-01 02:14:00,61.4,51.1,29.93,NW,322,1.1,0.0,69,0.00,CLR,,0.00,0.0,WeatherDisplay:10.37,2013-04-01 12:14:00,
2013-04-01 02:19:00,61.4,51.1,29.93,North,360,0.0,0.0,69,0.00,CLR,,0.00,0.0,WeatherDisplay:10.37,2013-04-01 12:19:00,
2013-04-01 02:24:00,61.2,50.9,29.93,NNE,22,2.3,2.3,69,0.00,CLR,,0.00,0.0,WeatherDisplay:10.37,2013-04-01 12:24:00,
2013-04-01 02:29:00,61.1,51.2,29.93,North,360,0.0,0.0,70,0.00,CLR,,0.00,0.0,WeatherDisplay:10.37,2013-04-01 12:29:00,
2013-04-01 02:34:00,60.9,51.0,29.93,North,360,2.3,2.3,70,0.00,CLR,,0.00,0.0,WeatherDisplay:10.37,2013-04-01 12:34:00,
2013-04-01 02:39:00,60.8,51.0,29.93,North,351,3.5,3.5,70,0.00,CLR,,0.00,0.0,WeatherDisplay:10.37,2013-04-01 12:39:00,
2013-04-01 02:44:00,60.6,51.1,29.93,NNW,347,0.0,0.0,71,0.00,CLR,,0.00,0.0,WeatherDisplay:10.37,2013-04-01 12:44:00,
2013-04-01 02:49:00,60.5,51.0,29.92,North,351,5.8,5.8,71,0.00,CLR,,0.00,0.0,WeatherDisplay:10.37,2013-04-01 12:49:00,
2013-04-01 02:54:00,60.5,51.0,29.92,NNW,341,2.3,2.3,71,0.00,CLR,,0.00,0.0,WeatherDisplay:10.37,2013-04-01 12:54:00,
2013-04-01 02:59:00,60.4,51.3,29.92,NNW,342,2.0,2.0,72,0.00,CLR,,0.00,0.0,WeatherDisplay:10.37,2013-04-01 12:59:00,
2013-04-01 03:04:00,60.4,51.3,29.92,NE,37,0.0,0.0,72,0.00,CLR,,0.00,0.0,WeatherDisplay:10.37,2013-04-01 13:04:00,
2013-04-01 03:09:00,60.3,51.2,29.92,North,9,3.5,3.5,72,0.00,CLR,,0.00,0.0,WeatherDisplay:10.37,2013-04-01 13:09:00,
2013-04-01 03:14:00,60.3,51.2,29.92,North,355,1.1,1.1,72,0.00,CLR,,0.00,0.0,WeatherDisplay:10.37,2013-04-01 13:14:00,
2013-04-01 03:19:00,60.2,51.5,29.92,North,355,1.1,1.1,73,0.00,CLR,,0.00,0.0,WeatherDisplay:10.37,2013-04-01 13:19:00,
2013-04-01 03:24:00,60.2,51.5,29.92,NE,49,3.5,3.5,73,0.00,CLR,,0.00,0.0,WeatherDisplay:10.37,2013-04-01 13:24:00,
2013-04-01 03:29:00,60.2,51.5,29.92,NE,48,1.1,0.0,73,0.00,CLR,,0.00,0.0,WeatherDisplay:10.37,2013-04-01 13:29:00,
2013-04-01 03:34:00,60.2,51.5,29.92,NE,47,1.1,1.1,73,0.00,CLR,,0.00,0.0,WeatherDisplay:10.37,2013-04-01 13:34:00,
2013-04-01 03:39:00,60.2,51.9,29.92,NNE,24,2.3,2.3,74,0.00,CLR,,0.00,0.0,WeatherDisplay:10.37,2013-04-01 13:39:00,
2013-04-01 03:44:00,60.2,51.9,29.92,North,360,2.3,2.3,74,0.00,CLR,,0.00,0.0,WeatherDisplay:10.37,2013-04-01 13:44:00,
2013-04-01 03:49:00,60.3,52.0,29.92,NNW,345,2.3,2.3,74,0.00,CLR,,0.00,0.0,WeatherDisplay:10.37,2013-04-01 13:49:00,
2013-04-01 03:54:00,60.3,52.0,29.91,NNW,345,1.1,1.1,74,0.00,CLR,,0.00,0.0,WeatherDisplay:10.37,2013-04-01 13:54:00,
2013-04-01 03:59:00,60.3,52.3,29.91,NNW,345,2.3,2.3,75,0.00,CLR,,0.00,0.0,WeatherDisplay:10.37,2013-04-01 13:59:00,
2013-04-01 04:04:00,60.4,52.4,29.92,NNW,345,3.5,3.5,75,0.00,CLR,,0.00,0.0,WeatherDisplay:10.37,2013-04-01 14:04:00,
2013-04-01 04:09:00,60.5,52.5,29.92,NNW,345,1.1,1.1,75,0.00,CLR,,0.00,0.0,WeatherDisplay:10.37,2013-04-01 14:09:00,
2013-04-01 04:14:00,60.6,53.0,29.91,North,5,4.6,4.6,76,0.00,CLR,,0.00,0.0,WeatherDisplay:10.37,2013-04-01 14:14:00,
2013-04-01 04:19:00,60.8,53.2,29.91,NNW,342,3.5,3.5,76,0.00,CLR,,0.00,0.0,WeatherDisplay:10.37,2013-04-01 14:19:00,
2013-04-01 04:24:00,61.0,53.4,29.92,NNW,341,2.3,2.3,76,0.00,CLR,,0.00,0.0,WeatherDisplay:10.37,2013-04-01 14:24:00,
2013-04-01 04:29:00,61.0,53.4,29.92,NNW,341,1.1,1.1,76,0.00,CLR,,0.00,0.0,WeatherDisplay:10.37,2013-04-01 14:29:00,
2013-04-01 04:34:00,61.1,53.5,29.92,NNW,341,0.0,0.4,76,0.00,CLR,,0.00,0.0,WeatherDisplay:10.37,2013-04-01 14:34:00,
2013-04-01 04:39:00,61.1,53.5,29.92,NNW,341,0.0,0.0,76,0.00,CLR,,0.00,0.0,WeatherDisplay:10.37,2013-04-01 14:39:00,
2013-04-01 04:44:00,61.2,53.6,29.92,NNW,341,1.1,1.1,76,0.00,CLR,,0.00,0.0,WeatherDisplay:10.37,2013-04-01 14:44:00,
2013-04-01 04:49:00,61.2,53.6,29.92,North,355,0.0,0.0,76,0.00,CLR,,0.00,0.0,WeatherDisplay:10.37,2013-04-01 14:49:00,
2013-04-01 04:54:00,61.1,53.5,29.92,North,355,0.0,0.0,76,0.00,CLR,,0.00,0.0,WeatherDisplay:10.37,2013-04-01 14:54:00,
2013-04-01 04:59:00,61.1,53.5,29.92,North,355,0.0,0.0,76,0.00,CLR,,0.00,0.0,WeatherDisplay:10.37,2013-04-01 14:59:00,
2013-04-01 05:04:00,61.1,53.5,29.92,North,355,0.0,0.0,76,0.00,CLR,,0.00,0.0,WeatherDisplay:10.37,2013-04-01 15:04:00,
2013-04-01 05:09:00,61.0,53.4,29.92,North,355,1.0,1.0,76,0.00,CLR,,0.00,0.0,WeatherDisplay:10.37,2013-04-01 15:09:00,
2013-04-01 05:14:00,61.0,53.7,29.92,NNW,347,2.3,2.3,77,0.00,CLR,,0.00,0.0,WeatherDisplay:10.37,2013-04-01 15:14:00,
2013-04-01 05:19:00,61.0,53.7,29.92,NNW,347,1.1,1.1,77,0.00,CLR,,0.00,0.0,WeatherDisplay:10.37,2013-04-01 15:19:00,
2013-04-01 05:24:00,61.0,53.7,29.92,NNW,346,0.0,0.0,77,0.00,CLR,,0.00,0.0,WeatherDisplay:10.37,2013-04-01 15:24:00,
2013-04-01 05:29:00,61.0,53.7,29.92,NE,53,1.1,1.1,77,0.00,CLR,,0.00,0.0,WeatherDisplay:10.37,2013-04-01 15:29:00,
2013-04-01 05:34:00,61.1,53.8,29.93,NNW,335,3.5,3.5,77,0.00,CLR,,0.00,0.0,WeatherDisplay:10.37,2013-04-01 15:34:00,
2013-04-01 05:39:00,61.2,53.9,29.93,WNW,297,1.1,1.1,77,0.00,CLR,,0.00,0.0,WeatherDisplay:10.37,2013-04-01 15:39:00,
2013-04-01 05:44:00,61.3,54.4,29.93,WNW,288,4.6,4.6,78,0.00,CLR,,0.00,0.0,WeatherDisplay:10.37,2013-04-01 15:44:00,
2013-04-01 05:49:00,61.4,54.5,29.93,WNW,283,1.1,1.1,78,0.00,CLR,,0.00,0.0,WeatherDisplay:10.37,2013-04-01 15:49:00,
2013-04-01 05:54:00,61.4,54.5,29.93,WNW,282,2.3,2.3,78,0.00,CLR,,0.00,0.0,WeatherDisplay:10.37,2013-04-01 15:54:00,
2013-04-01 05:59:00,61.4,54.5,29.93,WNW,282,0.0,0.0,78,0.00,CLR,,0.00,0.0,WeatherDisplay:10.37,2013-04-01 15:59:00,
2013-04-01 06:04:00,61.4,54.8,29.93,West,281,1.1,0.0,79,0.00,CLR,,0.00,0.0,WeatherDisplay:10.37,2013-04-01 16:04:00,
2013-04-01 06:09:00,61.4,54.8,29.93,WNW,292,0.0,0.0,79,0.00,CLR,,0.00,0.0,WeatherDisplay:10.37,2013-04-01 16:09:00,
2013-04-01 06:14:00,61.3,54.7,29.93,NW,313,1.1,1.1,79,0.00,CLR,,0.00,0.0,WeatherDisplay:10.37,2013-04-01 16:14:00,
2013-04-01 06:19:00,61.1,54.9,29.93,NNW,343,3.5,3.5,80,0.00,CLR,,0.00,0.0,WeatherDisplay:10.37,2013-04-01 16:19:00,
2013-04-01 06:24:00,60.9,54.3,29.93,NNW,342,1.1,1.1,79,0.00,CLR,,0.00,5.0,WeatherDisplay:10.37,2013-04-01 16:24:00,
2013-04-01 06:29:00,60.6,54.0,29.94,NNW,331,4.6,4.6,79,0.00,CLR,,0.00,7.0,WeatherDisplay:10.37,2013-04-01 16:29:00,
2013-04-01 06:34:00,60.4,53.9,29.94,NNW,342,2.3,2.3,79,0.00,FEW,,0.00,11.0,WeatherDisplay:10.37,2013-04-01 16:34:00,
2013-04-01 06:39:00,60.3,53.8,29.94,NNW,342,2.0,2.0,79,0.00,BKN,,0.00,14.0,WeatherDisplay:10.37,2013-04-01 16:39:00,
2013-04-01 06:44:00,60.2,53.7,29.94,NNW,338,2.3,2.3,79,0.00,BKN,,0.00,19.0,WeatherDisplay:10.37,2013-04-01 16:44:00,
2013-04-01 06:49:00,60.2,53.7,29.94,NNW,344,2.3,2.3,79,0.00,BKN,,0.00,26.0,WeatherDisplay:10.37,2013-04-01 16:49:00,
2013-04-01 06:54:00,60.1,53.6,29.94,NNW,338,3.5,3.5,79,0.00,BKN,,0.00,33.0,WeatherDisplay:10.37,2013-04-01 16:54:00,
2013-04-01 06:59:00,60.0,53.5,29.95,NNW,342,2.3,2.3,79,0.00,BKN,,0.00,40.0,WeatherDisplay:10.37,2013-04-01 16:59:00,
2013-04-01 07:04:00,60.1,53.6,29.95,North,350,2.0,2.0,79,0.00,FEW,,0.00,63.0,WeatherDisplay:10.37,2013-04-01 17:04:00,
2013-04-01 07:09:00,60.2,53.7,29.95,NNW,341,3.5,3.5,79,0.00,CLR,,0.00,90.0,WeatherDisplay:10.37,2013-04-01 17:09:00,
2013-04-01 07:14:00,60.4,53.9,29.95,NNW,340,3.5,3.5,79,0.00,SCT,,0.00,62.0,WeatherDisplay:10.37,2013-04-01 17:14:00,
2013-04-01 07:19:00,60.6,53.7,29.95,NNW,331,3.5,3.5,78,0.00,CLR,,0.00,137.0,WeatherDisplay:10.37,2013-04-01 17:19:00,
2013-04-01 07:24:00,61.1,54.2,29.96,NNW,342,6.9,6.9,78,0.00,SCT,,0.00,91.0,WeatherDisplay:10.37,2013-04-01 17:24:00,
2013-04-01 07:29:00,61.5,54.2,29.95,NNW,327,2.3,2.3,77,0.00,CLR,,0.00,167.0,WeatherDisplay:10.37,2013-04-01 17:29:00,
2013-04-01 07:34:00,61.8,54.2,29.96,North,355,3.5,3.5,76,0.00,CLR,,0.00,237.0,WeatherDisplay:10.37,2013-04-01 17:34:00,
2013-04-01 07:39:00,62.2,54.2,29.95,WNW,284,4.6,4.6,75,0.00,CLR,,0.00,295.0,WeatherDisplay:10.37,2013-04-01 17:39:00,
2013-04-01 07:44:00,62.7,54.3,29.95,WNW,303,3.5,3.5,74,0.00,FEW,,0.00,137.0,WeatherDisplay:10.37,2013-04-01 17:44:00,
2013-04-01 07:49:00,63.1,54.3,29.95,NNW,340,4.6,4.6,73,0.00,CLR,,0.00,153.0,WeatherDisplay:10.37,2013-04-01 17:49:00,
2013-04-01 07:54:00,63.6,54.8,29.95,NW,317,1.1,1.1,73,0.00,CLR,,0.00,188.0,WeatherDisplay:10.37,2013-04-01 17:54:00,
2013-04-01 07:59:00,63.9,54.7,29.95,NW,317,1.1,1.1,72,0.00,CLR,,0.00,234.0,WeatherDisplay:10.37,2013-04-01 17:59:00,
2013-04-01 08:04:00,64.2,54.6,29.95,West,273,3.5,3.5,71,0.00,CLR,,0.00,287.0,WeatherDisplay:10.37,2013-04-01 18:04:00,
2013-04-01 08:09:00,64.5,54.9,29.95,West,277,3.5,3.5,71,0.00,CLR,,0.00,230.0,WeatherDisplay:10.37,2013-04-01 18:09:00,
2013-04-01 08:14:00,64.8,54.8,29.96,NNW,328,5.0,5.0,70,0.00,CLR,,0.00,223.0,WeatherDisplay:10.37,2013-04-01 18:14:00,
2013-04-01 08:19:00,65.0,54.2,29.96,NNW,340,3.5,3.5,68,0.00,SCT,,0.00,186.0,WeatherDisplay:10.37,2013-04-01 18:19:00,
2013-04-01 08:24:00,65.0,54.2,29.96,NW,319,1.1,1.1,68,0.00,FEW,,0.00,360.0,WeatherDisplay:10.37,2013-04-01 18:24:00,
2013-04-01 08:29:00,65.2,54.4,29.96,NNW,336,7.0,7.0,68,0.00,CLR,,0.00,302.0,WeatherDisplay:10.37,2013-04-01 18:29:00,
2013-04-01 08:34:00,65.5,54.7,29.96,WSW,258,3.5,3.5,68,0.00,CLR,,0.00,302.0,WeatherDisplay:10.37,2013-04-01 18:34:00,
2013-04-01 08:39:00,65.8,54.5,29.96,North,355,4.0,4.0,67,0.00,SCT,,0.00,262.0,WeatherDisplay:10.37,2013-04-01 18:39:00,
2013-04-01 08:44:00,65.9,54.2,29.96,NNW,348,5.8,5.8,66,0.00,SCT,,0.00,255.0,WeatherDisplay:10.37,2013-04-01 18:44:00,
2013-04-01 08:49:00,65.9,54.2,29.96,NW,305,3.0,3.0,66,0.00,SCT,,0.00,271.0,WeatherDisplay:10.37,2013-04-01 18:49:00,
2013-04-01 08:54:00,66.0,54.3,29.96,West,277,2.3,2.3,66,0.00,FEW,,0.00,304.0,WeatherDisplay:10.37,2013-04-01 18:54:00,
2013-04-01 08:59:00,66.2,54.5,29.96,WNW,285,1.1,1.1,66,0.00,FEW,,0.00,343.0,WeatherDisplay:10.37,2013-04-01 18:59:00,
2013-04-01 09:04:00,66.3,54.2,29.96,NNE,29,3.5,3.5,65,0.00,BKN,,0.00,251.0,WeatherDisplay:10.37,2013-04-01 19:04:00,
2013-04-01 09:09:00,66.5,53.9,29.97,NNW,331,1.1,1.1,64,0.00,BKN,,0.00,229.0,WeatherDisplay:10.37,2013-04-01 19:09:00,
2013-04-01 09:14:00,66.6,54.5,29.97,NNW,348,4.0,4.0,65,0.00,BKN,,0.00,183.0,WeatherDisplay:10.37,2013-04-01 19:14:00,
2013-04-01 09:19:00,66.6,54.5,29.97,NW,321,1.1,1.1,65,0.00,OVC,,0.00,176.0,WeatherDisplay:10.37,2013-04-01 19:19:00,
2013-04-01 09:24:00,66.6,54.5,29.97,NNW,341,4.6,4.6,65,0.00,OVC,,0.00,185.0,WeatherDisplay:10.37,2013-04-01 19:24:00,
2013-04-01 09:29:00,66.5,53.9,29.97,North,5,4.6,4.6,64,0.00,BKN,,0.00,193.0,WeatherDisplay:10.37,2013-04-01 19:29:00,
2013-04-01 09:34:00,66.4,54.7,29.97,NNW,344,4.0,4.0,66,0.00,BKN,,0.00,239.0,WeatherDisplay:10.37,2013-04-01 19:34:00,
2013-04-01 09:39:00,66.3,54.6,29.97,NNW,329,1.1,1.3,66,0.00,BKN,,0.00,257.0,WeatherDisplay:10.37,2013-04-01 19:39:00,
2013-04-01 09:44:00,66.1,54.8,29.97,NNW,328,9.2,9.2,67,0.00,BKN,,0.00,267.0,WeatherDisplay:10.37,2013-04-01 19:44:00,
2013-04-01 09:49:00,66.0,54.7,29.97,NNW,336,6.0,6.0,67,0.00,BKN,,0.00,327.0,WeatherDisplay:10.37,2013-04-01 19:49:00,
2013-04-01 09:54:00,65.8,54.5,29.97,NW,325,4.6,4.6,67,0.00,SCT,,0.00,357.0,WeatherDisplay:10.37,2013-04-01 19:54:00,
2013-04-01 09:59:00,65.8,54.5,29.97,North,355,3.5,3.5,67,0.00,BKN,,0.00,257.0,WeatherDisplay:10.37,2013-04-01 19:59:00,
2013-04-01 10:04:00,65.8,54.5,29.97,NW,325,4.6,4.6,67,0.00,BKN,,0.00,299.0,WeatherDisplay:10.37,2013-04-01 20:04:00,
2013-04-01 10:09:00,65.9,54.6,29.97,NW,316,6.9,6.9,67,0.00,FEW,,0.00,482.0,WeatherDisplay:10.37,2013-04-01 20:09:00,
2013-04-01 10:14:00,66.6,55.3,29.97,NNW,347,10.4,10.4,67,0.00,FEW,,0.00,499.0,WeatherDisplay:10.37,2013-04-01 20:14:00,
2013-04-01 10:19:00,67.2,55.0,29.97,WNW,292,9.2,9.2,65,0.00,SCT,,0.00,452.0,WeatherDisplay:10.37,2013-04-01 20:19:00,
2013-04-01 10:24:00,67.5,55.3,29.97,WNW,301,11.5,11.5,65,0.00,SCT,,0.00,441.0,WeatherDisplay:10.37,2013-04-01 20:24:00,
2013-04-01 10:29:00,67.7,55.5,29.97,West,280,5.8,5.8,65,0.00,SCT,,0.00,406.0,WeatherDisplay:10.37,2013-04-01 20:29:00,
2013-04-01 10:34:00,68.1,56.3,29.96,WNW,288,3.0,3.0,66,0.00,CLR,,0.00,947.0,WeatherDisplay:10.37,2013-04-01 20:34:00,
2013-04-01 10:39:00,68.8,55.7,29.96,SW,232,8.1,8.1,63,0.00,CLR,,0.00,940.0,WeatherDisplay:10.37,2013-04-01 20:39:00,
2013-04-01 10:44:00,69.3,54.8,29.96,NW,316,9.2,9.2,60,0.00,CLR,,0.00,1039.0,WeatherDisplay:10.37,2013-04-01 20:44:00,
2013-04-01 10:49:00,69.7,54.3,29.95,West,273,9.2,9.2,58,0.00,SCT,,0.00,501.0,WeatherDisplay:10.37,2013-04-01 20:49:00,
2013-04-01 10:54:00,69.3,53.9,29.95,WSW,257,8.1,8.1,58,0.00,SCT,,0.00,469.0,WeatherDisplay:10.37,2013-04-01 20:54:00,
2013-04-01 10:59:00,69.3,54.8,29.95,West,269,4.0,4.0,60,0.00,BKN,,0.00,434.0,WeatherDisplay:10.37,2013-04-01 20:59:00,
2013-04-01 11:04:00,69.2,54.7,29.95,West,268,5.8,5.8,60,0.00,SCT,,0.00,461.0,WeatherDisplay:10.37,2013-04-01 21:04:00,
2013-04-01 11:09:00,69.1,54.2,29.95,WSW,257,6.9,6.9,59,0.00,SCT,,0.00,461.0,WeatherDisplay:10.37,2013-04-01 21:09:00,
2013-04-01 11:14:00,69.2,56.1,29.95,West,270,5.8,5.8,63,0.00,BKN,,0.00,469.0,WeatherDisplay:10.37,2013-04-01 21:14:00,
2013-04-01 11:19:00,69.1,56.4,29.95,NW,304,5.8,5.8,64,0.00,SCT,,0.00,468.0,WeatherDisplay:10.37,2013-04-01 21:19:00,
2013-04-01 11:24:00,69.1,57.3,29.95,WSW,257,11.5,11.5,66,0.00,BKN,,0.00,438.0,WeatherDisplay:10.37,2013-04-01 21:24:00,
2013-04-01 11:29:00,68.8,57.8,29.95,WNW,284,5.8,5.8,68,0.00,BKN,,0.00,408.0,WeatherDisplay:10.37,2013-04-01 21:29:00,
2013-04-01 11:34:00,68.5,57.9,29.95,NNW,340,4.0,4.0,69,0.00,BKN,,0.00,438.0,WeatherDisplay:10.37,2013-04-01 21:34:00,
2013-04-01 11:39:00,68.3,58.1,29.95,NW,304,6.9,6.9,70,0.00,BKN,,0.00,476.0,WeatherDisplay:10.37,2013-04-01 21:39:00,
2013-04-01 11:44:00,67.6,57.5,29.95,NNW,327,5.8,5.8,70,0.00,BKN,,0.00,422.0,WeatherDisplay:10.37,2013-04-01 21:44:00,
2013-04-01 11:49:00,67.1,57.4,29.95,NW,313,4.6,4.6,71,0.00,BKN,,0.00,478.0,WeatherDisplay:10.37,2013-04-01 21:49:00,
2013-04-01 11:54:00,67.0,56.9,29.95,WNW,290,6.9,6.9,70,0.00,BKN,,0.00,446.0,WeatherDisplay:10.37,2013-04-01 21:54:00,
2013-04-01 11:59:00,66.8,56.7,29.94,West,277,5.8,5.8,70,0.00,BKN,,0.00,454.0,WeatherDisplay:10.37,2013-04-01 21:59:00,
2013-04-01 12:04:00,66.9,56.0,29.94,NW,322,11.5,11.5,68,0.00,BKN,,0.00,438.0,WeatherDisplay:10.37,2013-04-01 22:04:00,
2013-04-01 12:09:00,67.1,56.6,29.94,NNW,330,6.0,6.0,69,0.00,BKN,,0.00,478.0,WeatherDisplay:10.37,2013-04-01 22:09:00,
2013-04-01 12:14:00,67.3,56.8,29.94,NW,308,5.0,5.0,69,0.00,BKN,,0.00,501.0,WeatherDisplay:10.37,2013-04-01 22:14:00,
2013-04-01 12:19:00,67.6,56.7,29.94,WSW,241,6.9,6.9,68,0.00,BKN,,0.00,496.0,WeatherDisplay:10.37,2013-04-01 22:19:00,
2013-04-01 12:24:00,67.8,56.0,29.94,West,276,11.5,11.5,66,0.00,SCT,,0.00,693.0,WeatherDisplay:10.37,2013-04-01 22:24:00,
2013-04-01 12:29:00,68.1,55.9,29.93,NNW,332,8.1,8.1,65,0.00,CLR,,0.00,603.0,WeatherDisplay:10.37,2013-04-01 22:29:00,
2013-04-01 12:34:00,68.6,56.4,29.93,NW,326,4.6,4.6,65,0.00,CLR,,0.00,724.0,WeatherDisplay:10.37,2013-04-01 22:34:00,
2013-04-01 12:39:00,69.1,55.1,29.93,NNE,21,4.6,4.6,61,0.00,FEW,,0.00,747.0,WeatherDisplay:10.37,2013-04-01 22:39:00,
2013-04-01 12:44:00,69.4,55.8,29.93,NW,316,5.0,5.0,62,0.00,CLR,,0.00,1194.0,WeatherDisplay:10.37,2013-04-01 22:44:00,
2013-04-01 12:49:00,70.1,56.0,29.93,SW,227,5.8,5.8,61,0.00,CLR,,0.00,1090.0,WeatherDisplay:10.37,2013-04-01 22:49:00,
2013-04-01 12:54:00,70.6,56.0,29.92,West,261,5.8,5.8,60,0.00,FEW,,0.00,585.0,WeatherDisplay:10.37,2013-04-01 22:54:00,
2013-04-01 12:59:00,71.1,56.5,29.92,SW,229,10.4,10.4,60,0.00,CLR,,0.00,1023.0,WeatherDisplay:10.37,2013-04-01 22:59:00,
2013-04-01 13:04:00,71.1,57.4,29.92,SW,233,8.0,8.0,62,0.00,CLR,,0.00,1310.0,WeatherDisplay:10.37,2013-04-01 23:04:00,
2013-04-01 13:09:00,71.8,57.6,29.92,West,265,3.0,3.0,61,0.00,CLR,,0.00,921.0,WeatherDisplay:10.37,2013-04-01 23:09:00,
2013-04-01 13:14:00,72.1,57.4,29.92,SSW,198,9.0,9.0,60,0.00,FEW,,0.00,652.0,WeatherDisplay:10.37,2013-04-01 23:14:00,
2013-04-01 13:19:00,72.3,58.1,29.92,South,190,3.5,3.5,61,0.00,FEW,,0.00,784.0,WeatherDisplay:10.37,2013-04-01 23:19:00,
2013-04-01 13:24:00,72.3,57.6,29.92,West,279,11.5,11.5,60,0.00,CLR,,0.00,675.0,WeatherDisplay:10.37,2013-04-01 23:24:00,
2013-04-01 13:29:00,72.0,57.4,29.92,WNW,296,4.6,4.6,60,0.00,SCT,,0.00,1271.0,WeatherDisplay:10.37,2013-04-01 23:29:00,
2013-04-01 13:34:00,72.6,57.4,29.91,SW,228,6.9,6.9,59,0.00,CLR,,0.00,1188.0,WeatherDisplay:10.37,2013-04-01 23:34:00,
2013-04-01 13:39:00,73.2,57.5,29.91,WNW,288,10.4,10.4,58,0.00,CLR,,0.00,1088.0,WeatherDisplay:10.37,2013-04-01 23:39:00,
2013-04-01 13:44:00,73.4,57.2,29.90,South,188,5.0,5.0,57,0.00,CLR,,0.00,1211.0,WeatherDisplay:10.37,2013-04-01 23:44:00,
2013-04-01 13:49:00,73.5,57.3,29.90,WSW,255,5.8,5.8,57,0.00,CLR,,0.00,1260.0,WeatherDisplay:10.37,2013-04-01 23:49:00,
2013-04-01 13:54:00,73.2,57.1,29.90,NW,319,5.8,5.8,57,0.00,SCT,,0.00,613.0,WeatherDisplay:10.37,2013-04-01 23:54:00,
2013-04-01 13:59:00,73.1,57.9,29.90,NW,310,5.8,5.8,59,0.00,CLR,,0.00,708.0,WeatherDisplay:10.37,2013-04-01 23:59:00,
2013-04-01 14:04:00,72.9,57.7,29.90,WNW,302,8.1,8.1,59,0.00,SCT,,0.00,496.0,WeatherDisplay:10.37,2013-04-02 00:04:00,
2013-04-01 14:09:00,72.6,57.0,29.90,North,9,10.4,10.4,58,0.00,FEW,,0.00,608.0,WeatherDisplay:10.37,2013-04-02 00:09:00,
2013-04-01 14:14:00,72.6,57.4,29.90,NNW,340,8.1,8.1,59,0.00,CLR,,0.00,673.0,WeatherDisplay:10.37,2013-04-02 00:14:00,
2013-04-01 14:19:00,72.7,58.0,29.90,WSW,243,6.0,6.0,60,0.00,BKN,,0.00,376.0,WeatherDisplay:10.37,2013-04-02 00:19:00,
2013-04-01 14:24:00,72.2,57.5,29.90,West,260,4.0,4.0,60,0.00,BKN,,0.00,267.0,WeatherDisplay:10.37,2013-04-02 00:24:00,
2013-04-01 14:29:00,71.3,56.7,29.90,WSW,242,11.5,11.5,60,0.00,BKN,,0.00,320.0,WeatherDisplay:10.37,2013-04-02 00:29:00,
2013-04-01 14:34:00,70.9,56.8,29.90,West,266,5.8,5.8,61,0.00,BKN,,0.00,320.0,WeatherDisplay:10.37,2013-04-02 00:34:00,
2013-04-01 14:39:00,71.1,57.9,29.90,NNW,338,3.5,3.5,63,0.00,FEW,,0.00,571.0,WeatherDisplay:10.37,2013-04-02 00:39:00,
2013-04-01 14:44:00,71.2,56.6,29.90,West,259,5.8,5.8,60,0.00,BKN,,0.00,274.0,WeatherDisplay:10.37,2013-04-02 00:44:00,
2013-04-01 14:50:00,70.9,56.3,29.90,WNW,287,8.1,8.1,60,0.00,BKN,,0.00,448.0,WeatherDisplay:10.37,2013-04-02 00:50:00,
2013-04-01 14:54:00,70.7,56.6,29.89,West,273,4.0,4.0,61,0.00,CLR,,0.00,603.0,WeatherDisplay:10.37,2013-04-02 00:54:00,
2013-04-01 14:59:00,70.8,55.8,29.89,WSW,250,8.1,8.1,59,0.00,CLR,,0.00,636.0,WeatherDisplay:10.37,2013-04-02 00:59:00,
2013-04-01 15:04:00,70.7,55.7,29.89,West,271,7.0,7.0,59,0.00,CLR,,0.00,682.0,WeatherDisplay:10.37,2013-04-02 01:04:00,
2013-04-01 15:10:00,70.6,56.0,29.89,WSW,254,11.5,11.5,60,0.00,CLR,,0.00,693.0,WeatherDisplay:10.37,2013-04-02 01:10:00,
2013-04-01 15:15:00,70.8,56.7,29.89,NW,322,4.6,4.6,61,0.00,CLR,,0.00,737.0,WeatherDisplay:10.37,2013-04-02 01:15:00,
2013-04-01 15:20:00,71.2,56.1,29.89,WSW,252,8.1,8.1,59,0.00,CLR,,0.00,693.0,WeatherDisplay:10.37,2013-04-02 01:20:00,
2013-04-01 15:25:00,71.0,55.5,29.89,SSW,200,15.0,15.0,58,0.00,CLR,,0.00,561.0,WeatherDisplay:10.37,2013-04-02 01:25:00,
2013-04-01 15:30:00,71.2,57.1,29.89,North,5,6.9,6.9,61,0.00,CLR,,0.00,993.0,WeatherDisplay:10.37,2013-04-02 01:30:00,
2013-04-01 15:35:00,71.5,56.4,29.88,SW,218,3.5,3.5,59,0.00,CLR,,0.00,468.0,WeatherDisplay:10.37,2013-04-02 01:35:00,
2013-04-01 15:40:00,71.7,56.6,29.89,WSW,249,8.1,8.1,59,0.00,CLR,,0.00,473.0,WeatherDisplay:10.37,2013-04-02 01:40:00,
2013-04-01 15:45:00,71.7,56.1,29.89,ESE,115,5.0,5.0,58,0.00,CLR,,0.00,972.0,WeatherDisplay:10.37,2013-04-02 01:45:00,
2013-04-01 15:50:00,71.5,55.9,29.89,West,264,7.0,7.0,58,0.00,CLR,,0.00,369.0,WeatherDisplay:10.37,2013-04-02 01:50:00,
2013-04-01 15:55:00,71.4,55.9,29.89,SW,218,3.5,3.5,58,0.00,SCT,,0.00,888.0,WeatherDisplay:10.37,2013-04-02 01:55:00,
2013-04-01 16:00:00,71.7,56.1,29.89,East,94,3.5,3.5,58,0.00,CLR,,0.00,898.0,WeatherDisplay:10.37,2013-04-02 02:00:00,
2013-04-01 16:05:00,71.8,55.7,29.89,NNW,346,3.5,3.5,57,0.00,SCT,,0.00,350.0,WeatherDisplay:10.37,2013-04-02 02:05:00,
2013-04-01 16:10:00,71.9,56.3,29.89,North,355,4.6,4.6,58,0.00,CLR,,0.00,541.0,WeatherDisplay:10.37,2013-04-02 02:10:00,
2013-04-01 16:15:00,71.9,55.8,29.89,NNW,337,3.5,3.5,57,0.00,BKN,,0.00,197.0,WeatherDisplay:10.37,2013-04-02 02:15:00,
2013-04-01 16:20:00,71.6,55.5,29.89,NNW,334,1.0,4.0,57,0.00,BKN,,0.00,207.0,WeatherDisplay:10.37,2013-04-02 02:20:00,
2013-04-01 16:25:00,71.2,55.7,29.89,NNE,32,3.5,3.5,58,0.00,BKN,,0.00,186.0,WeatherDisplay:10.37,2013-04-02 02:25:00,
2013-04-01 16:30:00,70.8,56.2,29.89,North,355,6.9,6.9,60,0.00,SCT,,0.00,221.0,WeatherDisplay:10.37,2013-04-02 02:30:00,
2013-04-01 16:35:00,69.9,56.3,29.89,NNE,30,5.8,5.8,62,0.00,CLR,,0.00,278.0,WeatherDisplay:10.37,2013-04-02 02:35:00,
2013-04-01 16:40:00,69.4,54.9,29.89,NNW,340,3.5,3.5,60,0.00,SCT,,0.00,211.0,WeatherDisplay:10.37,2013-04-02 02:40:00,
2013-04-01 16:45:00,69.3,54.4,29.89,WSW,248,2.3,2.3,59,0.00,SCT,,0.00,221.0,WeatherDisplay:10.37,2013-04-02 02:45:00,
2013-04-01 16:50:00,69.4,54.9,29.89,NNE,18,3.5,3.5,60,0.00,SCT,,0.00,214.0,WeatherDisplay:10.37,2013-04-02 02:50:00,
2013-04-01 16:55:00,69.5,54.1,29.89,NNW,330,3.5,3.5,58,0.00,SCT,,0.00,206.0,WeatherDisplay:10.37,2013-04-02 02:55:00,
2013-04-01 17:00:00,69.5,54.1,29.89,North,355,3.5,3.5,58,0.00,FEW,,0.00,220.0,WeatherDisplay:10.37,2013-04-02 03:00:00,
2013-04-01 17:05:00,69.5,53.6,29.89,NNE,17,3.5,3.5,57,0.00,FEW,,0.00,211.0,WeatherDisplay:10.37,2013-04-02 03:05:00,
2013-04-01 17:10:00,69.4,54.0,29.89,NW,304,1.1,1.1,58,0.00,CLR,,0.00,213.0,WeatherDisplay:10.37,2013-04-02 03:10:00,
2013-04-01 17:15:00,69.4,54.0,29.90,WNW,283,4.6,4.6,58,0.00,CLR,,0.00,195.0,WeatherDisplay:10.37,2013-04-02 03:15:00,
2013-04-01 17:20:00,69.4,54.4,29.90,NNW,339,4.6,4.6,59,0.00,FEW,,0.00,160.0,WeatherDisplay:10.37,2013-04-02 03:20:00,
2013-04-01 17:25:00,69.3,55.3,29.90,NNW,346,6.9,6.9,61,0.00,FEW,,0.00,156.0,WeatherDisplay:10.37,2013-04-02 03:25:00,
2013-04-01 17:30:00,68.9,55.8,29.90,NNW,338,8.0,8.0,63,0.00,FEW,,0.00,148.0,WeatherDisplay:10.37,2013-04-02 03:30:00,
2013-04-01 17:35:00,68.2,56.4,29.91,NNW,335,5.0,5.0,66,0.00,SCT,,0.00,125.0,WeatherDisplay:10.37,2013-04-02 03:35:00,
2013-04-01 17:40:00,67.4,56.1,29.91,NNW,336,3.5,3.5,67,0.00,SCT,,0.00,97.0,WeatherDisplay:10.37,2013-04-02 03:40:00,
2013-04-01 17:45:00,66.9,56.0,29.91,NW,309,5.8,5.8,68,0.00,CLR,,0.00,118.0,WeatherDisplay:10.37,2013-04-02 03:45:00,
2013-04-01 17:50:00,66.6,56.1,29.91,NNW,336,3.5,3.5,69,0.00,FEW,,0.00,102.0,WeatherDisplay:10.37,2013-04-02 03:50:00,
2013-04-01 17:55:00,66.4,55.9,29.91,NW,311,6.9,6.9,69,0.00,CLR,,0.00,195.0,WeatherDisplay:10.37,2013-04-02 03:55:00,
2013-04-01 18:00:00,66.3,55.0,29.91,NW,324,1.0,7.0,67,0.00,CLR,,0.00,176.0,WeatherDisplay:10.37,2013-04-02 04:00:00,
2013-04-01 18:02:00,66.3,55.0,29.91,NW,315,4.6,4.6,67,0.00,CLR,,0.00,153.0,WeatherDisplay:10.37,2013-04-02 04:02:00,
2013-04-01 18:07:00,66.3,54.6,29.91,North,355,4.6,4.6,66,0.00,CLR,,0.00,120.0,WeatherDisplay:10.37,2013-04-02 04:07:00,
2013-04-01 18:12:00,66.4,54.3,29.91,NNW,342,4.6,4.6,65,0.00,CLR,,0.00,98.0,WeatherDisplay:10.37,2013-04-02 04:12:00,
2013-04-01 18:17:00,66.4,54.3,29.91,NW,325,5.8,5.8,65,0.00,CLR,,0.00,62.0,WeatherDisplay:10.37,2013-04-02 04:17:00,
2013-04-01 18:22:00,66.3,54.2,29.92,NNW,330,6.0,6.0,65,0.00,CLR,,0.00,49.0,WeatherDisplay:10.37,2013-04-02 04:22:00,
2013-04-01 18:27:00,66.1,54.4,29.92,West,275,3.5,3.5,66,0.00,CLR,,0.00,35.0,WeatherDisplay:10.37,2013-04-02 04:27:00,
2013-04-01 18:32:00,66.0,54.7,29.92,WNW,292,4.6,4.6,67,0.00,CLR,,0.00,23.0,WeatherDisplay:10.37,2013-04-02 04:32:00,
2013-04-01 18:37:00,65.8,54.5,29.92,NW,305,3.5,3.5,67,0.00,CLR,,0.00,18.0,WeatherDisplay:10.37,2013-04-02 04:37:00,
2013-04-01 18:43:00,65.6,54.8,29.92,NNW,333,1.1,0.0,68,0.00,CLR,,0.00,11.0,WeatherDisplay:10.37,2013-04-02 04:43:00,
2013-04-01 18:48:00,65.4,54.6,29.92,NNW,338,5.8,5.8,68,0.00,CLR,,0.00,5.0,WeatherDisplay:10.37,2013-04-02 04:48:00,
2013-04-01 18:53:00,65.2,54.8,29.92,NNW,344,3.5,3.5,69,0.00,CLR,,0.00,0.0,WeatherDisplay:10.37,2013-04-02 04:53:00,
2013-04-01 18:58:00,64.9,54.5,29.92,NNW,348,4.6,4.6,69,0.00,CLR,,0.00,0.0,WeatherDisplay:10.37,2013-04-02 04:58:00,
2013-04-01 19:03:00,64.8,54.4,29.92,NNW,327,5.8,5.8,69,0.00,CLR,,0.00,0.0,WeatherDisplay:10.37,2013-04-02 05:03:00,
2013-04-01 19:08:00,64.5,54.5,29.93,NNE,18,4.6,4.6,70,0.00,CLR,,0.00,0.0,WeatherDisplay:10.37,2013-04-02 05:08:00,
2013-04-01 19:13:00,64.4,54.4,29.93,NE,49,5.8,5.8,70,0.00,CLR,,0.00,0.0,WeatherDisplay:10.37,2013-04-02 05:13:00,
2013-04-01 19:18:00,64.2,53.8,29.93,NW,304,6.9,6.9,69,0.00,CLR,,0.00,0.0,WeatherDisplay:10.37,2013-04-02 05:18:00,
2013-04-01 19:23:00,64.2,53.8,29.93,NW,319,5.0,5.0,69,0.00,CLR,,0.00,0.0,WeatherDisplay:10.37,2013-04-02 05:23:00,
2013-04-01 19:28:00,64.2,53.4,29.93,NNW,336,8.1,8.1,68,0.00,CLR,,0.00,0.0,WeatherDisplay:10.37,2013-04-02 05:28:00,
2013-04-01 19:33:00,64.3,53.5,29.93,NNW,336,4.6,4.6,68,0.00,CLR,,0.00,0.0,WeatherDisplay:10.37,2013-04-02 05:33:00,
2013-04-01 19:38:00,64.2,53.4,29.93,NNW,347,8.1,8.1,68,0.00,CLR,,0.00,0.0,WeatherDisplay:10.37,2013-04-02 05:38:00,
2013-04-01 19:43:00,64.2,53.8,29.94,North,360,4.6,4.6,69,0.00,CLR,,0.00,0.0,WeatherDisplay:10.37,2013-04-02 05:43:00,
2013-04-01 19:48:00,64.1,53.7,29.94,NNW,343,1.1,1.1,69,0.00,CLR,,0.00,0.0,WeatherDisplay:10.37,2013-04-02 05:48:00,
2013-04-01 19:53:00,64.0,53.2,29.95,NNW,346,3.5,3.5,68,0.00,CLR,,0.00,0.0,WeatherDisplay:10.37,2013-04-02 05:53:00,
2013-04-01 19:58:00,64.0,53.6,29.95,NNW,346,0.0,0.0,69,0.00,CLR,,0.00,0.0,WeatherDisplay:10.37,2013-04-02 05:58:00,
2013-04-01 20:03:00,63.9,53.5,29.95,West,275,3.5,3.5,69,0.00,CLR,,0.00,0.0,WeatherDisplay:10.37,2013-04-02 06:03:00,
2013-04-01 20:08:00,63.9,53.5,29.95,West,275,0.0,0.0,69,0.00,CLR,,0.00,0.0,WeatherDisplay:10.37,2013-04-02 06:08:00,
2013-04-01 20:13:00,63.8,53.4,29.95,West,275,1.1,0.0,69,0.00,CLR,,0.00,0.0,WeatherDisplay:10.37,2013-04-02 06:13:00,
2013-04-01 20:18:00,63.6,53.2,29.95,West,275,0.0,0.0,69,0.00,CLR,,0.00,0.0,WeatherDisplay:10.37,2013-04-02 06:18:00,
2013-04-01 20:23:00,63.5,53.1,29.95,West,275,1.1,0.0,69,0.00,CLR,,0.00,0.0,WeatherDisplay:10.37,2013-04-02 06:23:00,
2013-04-01 20:28:00,63.2,53.3,29.96,West,275,2.3,2.3,70,0.00,CLR,,0.00,0.0,WeatherDisplay:10.37,2013-04-02 06:28:00,
2013-04-01 20:33:00,62.9,53.0,29.96,NNW,341,3.0,3.0,70,0.00,CLR,,0.00,0.0,WeatherDisplay:10.37,2013-04-02 06:33:00,
2013-04-01 20:38:00,62.5,52.6,29.96,NNW,342,1.1,1.1,70,0.00,CLR,,0.00,0.0,WeatherDisplay:10.37,2013-04-02 06:38:00,
2013-04-01 20:43:00,62.3,52.8,29.96,NNW,342,2.3,2.3,71,0.00,CLR,,0.00,0.0,WeatherDisplay:10.37,2013-04-02 06:43:00,
2013-04-01 20:48:00,62.1,52.6,29.96,North,355,1.1,1.1,71,0.00,CLR,,0.00,0.0,WeatherDisplay:10.37,2013-04-02 06:48:00,
2013-04-01 20:53:00,62.0,52.9,29.96,North,355,2.3,2.3,72,0.00,CLR,,0.00,0.0,WeatherDisplay:10.37,2013-04-02 06:53:00,
2013-04-01 20:58:00,61.8,52.7,29.97,North,355,0.0,0.0,72,0.00,CLR,,0.00,0.0,WeatherDisplay:10.37,2013-04-02 06:58:00,
2013-04-01 21:03:00,61.7,52.6,29.97,North,355,0.0,0.0,72,0.00,CLR,,0.00,0.0,WeatherDisplay:10.37,2013-04-02 07:03:00,
2013-04-01 21:08:00,61.6,52.9,29.97,North,355,0.0,0.0,73,0.00,CLR,,0.00,0.0,WeatherDisplay:10.37,2013-04-02 07:08:00,
2013-04-01 21:13:00,61.6,52.9,29.97,North,355,0.0,0.0,73,0.00,CLR,,0.00,0.0,WeatherDisplay:10.37,2013-04-02 07:13:00,
2013-04-01 21:18:00,61.5,53.1,29.97,North,355,0.0,0.0,74,0.00,CLR,,0.00,0.0,WeatherDisplay:10.37,2013-04-02 07:18:00,
2013-04-01 21:23:00,61.4,53.0,29.97,North,355,3.5,3.5,74,0.00,CLR,,0.00,0.0,WeatherDisplay:10.37,2013-04-02 07:23:00,
2013-04-01 21:28:00,61.3,52.9,29.97,North,355,3.5,3.5,74,0.00,CLR,,0.00,0.0,WeatherDisplay:10.37,2013-04-02 07:28:00,
2013-04-01 21:33:00,61.3,53.3,29.97,North,355,3.5,3.5,75,0.00,CLR,,0.00,0.0,WeatherDisplay:10.37,2013-04-02 07:33:00,
2013-04-01 21:38:00,61.1,53.1,29.97,North,355,3.5,3.5,75,0.00,CLR,,0.00,0.0,WeatherDisplay:10.37,2013-04-02 07:38:00,
2013-04-01 21:43:00,61.1,53.1,29.97,North,355,0.0,0.0,75,0.00,CLR,,0.00,0.0,WeatherDisplay:10.37,2013-04-02 07:43:00,
2013-04-01 21:48:00,61.0,53.0,29.98,NNW,346,3.5,3.5,75,0.00,CLR,,0.00,0.0,WeatherDisplay:10.37,2013-04-02 07:48:00,
2013-04-01 21:53:00,61.0,53.0,29.98,NNW,346,0.0,0.0,75,0.00,CLR,,0.00,0.0,WeatherDisplay:10.37,2013-04-02 07:53:00,
2013-04-01 21:58:00,60.9,53.3,29.98,NNW,346,1.0,0.0,76,0.00,CLR,,0.00,0.0,WeatherDisplay:10.37,2013-04-02 07:58:00,
2013-04-01 22:03:00,60.9,53.3,29.98,North,350,2.0,2.0,76,0.00,CLR,,0.00,0.0,WeatherDisplay:10.37,2013-04-02 08:03:00,
2013-04-01 22:08:00,61.0,53.4,29.98,North,350,0.0,0.0,76,0.00,CLR,,0.00,0.0,WeatherDisplay:10.37,2013-04-02 08:08:00,
2013-04-01 22:14:00,61.0,53.4,29.98,North,350,1.0,0.0,76,0.00,CLR,,0.00,0.0,WeatherDisplay:10.37,2013-04-02 08:14:00,
2013-04-01 22:19:00,61.0,53.4,29.98,NNE,30,3.5,3.5,76,0.00,CLR,,0.00,0.0,WeatherDisplay:10.37,2013-04-02 08:19:00,
2013-04-01 22:24:00,61.1,53.5,29.98,NNE,30,0.0,0.0,76,0.00,CLR,,0.00,0.0,WeatherDisplay:10.37,2013-04-02 08:24:00,
2013-04-01 22:29:00,61.1,53.5,29.98,NNE,30,0.0,0.0,76,0.00,CLR,,0.00,0.0,WeatherDisplay:10.37,2013-04-02 08:29:00,
2013-04-01 22:34:00,61.2,53.6,29.98,NNE,30,0.0,0.0,76,0.00,CLR,,0.00,0.0,WeatherDisplay:10.37,2013-04-02 08:34:00,
2013-04-01 22:39:00,61.3,54.0,29.98,NNE,30,0.0,0.0,77,0.00,CLR,,0.00,0.0,WeatherDisplay:10.37,2013-04-02 08:39:00,
2013-04-01 22:44:00,61.3,53.7,29.98,NNE,30,2.3,2.3,76,0.00,CLR,,0.00,0.0,WeatherDisplay:10.37,2013-04-02 08:44:00,
2013-04-01 22:49:00,61.3,53.7,29.98,NNE,30,0.0,0.0,76,0.00,CLR,,0.00,0.0,WeatherDisplay:10.37,2013-04-02 08:49:00,
2013-04-01 22:54:00,61.4,53.8,29.98,NNE,30,0.0,0.0,76,0.00,CLR,,0.00,0.0,WeatherDisplay:10.37,2013-04-02 08:54:00,
2013-04-01 22:59:00,61.4,53.8,29.98,NNE,30,0.0,0.0,76,0.00,CLR,,0.00,0.0,WeatherDisplay:10.37,2013-04-02 08:59:00,
2013-04-01 23:04:00,61.4,53.8,29.98,NNE,30,2.3,2.3,76,0.00,CLR,,0.00,0.0,WeatherDisplay:10.37,2013-04-02 09:04:00,
2013-04-01 23:09:00,61.4,53.8,29.98,NNE,30,1.1,0.0,76,0.00,CLR,,0.00,0.0,WeatherDisplay:10.37,2013-04-02 09:09:00,
2013-04-01 23:14:00,61.5,54.2,29.98,NNW,334,0.0,0.0,77,0.00,CLR,,0.00,0.0,WeatherDisplay:10.37,2013-04-02 09:14:00,
2013-04-01 23:19:00,61.5,54.2,29.98,NW,323,2.3,2.3,77,0.00,CLR,,0.00,0.0,WeatherDisplay:10.37,2013-04-02 09:19:00,
2013-04-01 23:24:00,61.5,53.9,29.98,NW,323,2.3,2.3,76,0.00,CLR,,0.00,0.0,WeatherDisplay:10.37,2013-04-02 09:24:00,
2013-04-01 23:29:00,61.5,53.9,29.98,NW,323,2.3,2.3,76,0.00,CLR,,0.00,0.0,WeatherDisplay:10.37,2013-04-02 09:29:00,
2013-04-01 23:34:00,61.4,53.8,29.98,NW,323,2.3,0.0,76,0.00,CLR,,0.00,0.0,WeatherDisplay:10.37,2013-04-02 09:34:00,
2013-04-01 23:39:00,61.3,53.7,29.97,NW,323,0.0,0.0,76,0.00,CLR,,0.00,0.0,WeatherDisplay:10.37,2013-04-02 09:39:00,
2013-04-01 23:44:00,61.3,54.0,29.97,NW,323,1.1,0.0,77,0.00,CLR,,0.00,0.0,WeatherDisplay:10.37,2013-04-02 09:44:00,
2013-04-01 23:49:00,61.2,53.6,29.97,NW,323,2.3,2.3,76,0.00,CLR,,0.00,0.0,WeatherDisplay:10.37,2013-04-02 09:49:00,
2013-04-01 23:54:00,61.1,53.8,29.97,NW,323,0.0,0.0,77,0.00,CLR,,0.00,0.0,WeatherDisplay:10.37,2013-04-02 09:54:00,
2013-04-01 23:59:00,61.0,53.7,29.97,NW,323,1.1,1.1,77,0.00,CLR,,0.00,0.0,WeatherDisplay:10.37,2013-04-02 09:59:00,